Location: Rounton
(54.4000°N, 1.3500°W)
Time: 13:19:49
(UTC+00:00)

Transit 4A - Pass Details

Date: 01 December 2021
Orbit: 864 x 981 km, 66.8° (Epoch: 18 January)

Event Time Altitude Azimuth Distance (km) Brightness Sun altitude
Rises 00:51:37 0° 296° (WNW) 3,537 - -55.7°
Reaches altitude 10° 00:54:33 10° 309° (NW) 2,615 - -55.5°
Maximum altitude 00:59:35 26° 5° (N) 1,752 - -55.2°
Drops below altitude 10° 01:04:45 10° 61° (ENE) 2,682 - -54.8°
Sets 01:07:48 0° 74° (ENE) 3,645 - -54.6°
